Wind_Speed
15 13 11 9 8 7 7 7 8 9 9 9 10 11 12 13 13 10 7 11 9 10 7 7 9 18 20 3 10 9 0 5 9 3 6 9 10 10 18 21 18 9 20 26 30
17 14 12 11 9 8 8 8 8 8 8 9 10 11 11 12 13 13 19 11 9 8 5 11 10 8 4 2 5 4 2 5 10 17 8 6 1 7 7 18 22 23 24 32 32
19 17 15 12 10 9 8 9 9 8 8 9 10 10 9 8 5 8 9 22 18 10 10 14 18 4 4 2 4 5 2 6 10 22 8 9 5 13 18 17 19 24 23 23 25
22 19 16 14 12 11 10 9 8 7 7 8 8 7 6 2 1 1 9 18 15 8 5 10 9 6 4 4 3 0 5 5 3 7 3 3 6 7 6 17 20 17 25 21 17
23 21 18 15 13 12 12 10 8 6 6 6 5 4 1 3 9 8 10 13 10 8 10 10 8 3 8 11 16 13 8 3 11 7 13 11 12 10 8 23 20 17 27 20 13
23 23 21 18 15 14 13 12 9 6 5 4 2 2 1 5 7 9 12 14 9 11 12 17 10 10 16 15 6 10 10 2 4 9 1 8 12 19 16 19 19 16 17 12 13
23 24 22 19 17 16 13 12 9 7 6 4 2 1 5 12 7 9 13 14 12 15 12 22 19 8 5 9 6 14 3 4 5 7 7 10 8 10 13 14 17 16 14 12 9
24 25 24 21 19 16 14 12 10 7 8 5 2 1 7 14 15 14 17 16 14 14 19 19 4 15 8 6 6 7 2 2 6 6 5 9 5 13 8 7 3 13 16 14 13
26 25 26 22 19 17 15 11 9 6 7 3 1 3 8 6 10 14 13 15 18 17 19 16 4 7 5 4 0 1 1 4 4 5 5 10 5 21 13 6 5 3 10 16 7
27 26 26 24 21 18 15 8 5 2 3 4 8 5 8 13 15 19 14 14 9 8 9 10 3 5 2 3 2 2 2 6 1 8 7 4 7 6 11 15 16 13 8 14 14
28 27 27 27 23 19 11 3 0 2 7 10 10 8 11 20 12 9 14 10 9 5 8 11 5 10 13 9 10 6 7 9 7 8 6 6 6 9 10 7 5 8 9 11 12
31 29 29 28 25 17 7 5 12 9 8 20 19 17 29 8 5 7 16 7 7 8 11 7 11 12 18 13 19 15 8 8 11 12 5 7 4 7 4 4 10 9 12 6 4
32 31 30 29 24 13 14 20 24 28 7 17 15 15 13 8 7 9 11 9 6 9 10 9 13 8 15 9 19 16 18 6 10 9 8 8 8 4 3 4 4 6 9 10 11
33 34 27 30 9 4 7 12 19 23 5 7 10 12 8 7 8 13 18 9 7 9 11 9 13 12 5 16 20 17 24 18 23 10 5 13 3 7 1 3 10 10 10 9 13
39 34 22 20 15 6 13 16 16 13 4 11 9 7 10 8 5 7 22 8 12 10 3 11 10 6 8 9 7 4 17 10 19 10 12 7 4 3 5 8 6 10 16 15 15
44 29 23 5 8 15 13 15 2 1 6 8 8 7 8 8 13 11 11 7 8 9 10 10 11 7 5 8 9 6 4 4 3 5 2 6 5 4 7 9 7 7 16 17 17
40 23 19 9 6 8 10 8 1 4 7 10 10 13 10 9 11 10 9 8 6 4 8 11 13 10 6 6 9 4 2 3 4 4 1 6 2 10 9 13 15 16 10 9 16
37 17 7 14 4 9 9 1 5 10 10 1 9 13 9 10 12 11 9 7 9 10 9 7 8 13 9 9 5 6 3 4 3 4 5 1 6 6 16 20 10 11 11 11 11
36 10 4 4 10 6 1 4 5 5 7 12 10 9 8 10 10 8 10 12 11 13 8 5 11 11 8 6 7 6 5 8 2 8 3 0 3 9 15 15 10 11 11 10 10
25 7 14 13 10 7 2 7 7 13 20 17 7 6 9 11 9 9 12 14 15 16 15 9 6 13 11 8 8 7 4 5 4 3 3 5 8 6 16 16 12 12 14 8 15
6 3 12 11 12 1 4 5 13 17 16 12 7 10 12 13 8 6 8 9 12 12 10 12 6 12 3 3 8 3 3 3 1 1 4 5 4 7 9 11 9 9 10 9 15
11 3 12 13 2 3 6 6 10 18 18 9 2 5 10 15 13 11 14 3 7 7 7 7 5 5 9 8 6 7 7 8 5 9 3 6 5 8 6 8 15 12 11 7 9
6 4 9 10 3 6 9 13 14 15 8 8 7 8 9 11 9 9 12 12 11 2 4 2 3 3 9 4 2 2 5 4 3 1 5 6 4 3 6 11 12 14 10 9 8
4 4 3 3 3 12 11 8 13 17 16 3 7 10 11 6 9 8 9 11 11 5 2 5 2 5 6 5 2 3 11 10 5 4 1 1 4 5 6 8 8 10 10 9 9
2 4 6 5 8 16 13 12 15 15 17 17 5 6 9 8 9 9 10 9 13 5 4 3 2 3 5 3 4 3 10 14 5 9 2 8 12 9 9 9 5 9 10 10 9
4 4 6 11 10 13 11 9 14 14 9 11 12 13 8 6 5 8 11 4 3 8 9 4 4 3 6 7 6 6 5 10 10 12 10 13 12 8 15 12 12 10 10 9 9
12 17 5 8 9 10 8 17 18 14 10 16 16 13 12 12 16 7 8 7 6 5 5 5 3 5 4 5 4 4 4 6 5 16 18 17 9 15 13 17 15 12 11 10 9
Wind_Direction
357 354 349 346 340 324 309 302 296 295 295 292 288 288 292 297 298 284 247 231 244 244 249 249 234 247 255 30 47 297 138 136 162 237 245 104 82 87 122 138 152 113 132 138 143
5 359 352 351 345 335 319 307 299 293 291 287 285 288 298 312 315 257 243 240 218 208 234 232 250 260 95 82 74 352 80 185 147 212 241 308 274 140 111 100 104 119 127 142 147
10 4 0 353 348 339 334 324 308 291 284 279 281 288 306 333 284 243 232 218 232 248 254 266 277 308 85 25 46 294 249 199 195 222 265 326 328 111 124 117 128 135 144 145 148
11 6 1 354 347 338 334 330 322 297 278 274 281 293 314 0 242 307 176 200 216 222 231 265 275 127 138 19 99 80 264 167 347 278 242 272 290 123 126 128 131 138 149 146 157
10 5 0 355 347 338 330 326 325 306 281 274 279 298 332 224 253 256 182 184 185 170 225 256 271 97 59 29 338 268 208 87 45 321 271 297 1 354 131 135 136 150 149 158 146
7 4 358 352 346 340 332 327 315 303 279 266 273 303 261 251 216 201 181 174 181 177 228 252 261 119 95 35 339 29 57 67 79 117 95 73 343 333 144 134 141 164 135 135 137
1 1 355 348 341 336 328 327 317 273 261 260 265 21 261 245 199 162 169 196 191 206 226 254 285 84 117 140 287 333 29 15 9 46 47 31 347 319 297 139 151 144 145 138 135
358 355 353 344 335 329 323 321 317 262 245 251 267 165 252 244 250 183 182 208 212 226 252 278 1 76 109 200 14 338 11 292 165 160 155 175 222 295 294 30 222 145 144 144 161
354 352 350 343 334 325 320 314 314 278 233 248 291 211 267 280 206 235 208 208 217 226 246 261 295 115 149 105 190 222 197 268 155 187 165 197 216 235 270 310 143 259 132 142 144
349 346 343 340 331 320 319 310 315 141 205 284 262 289 254 235 210 215 209 225 227 206 233 240 207 98 209 116 239 240 269 264 288 190 192 190 237 261 234 248 168 180 133 153 151
345 340 337 337 329 316 318 330 246 245 234 203 184 230 273 221 225 193 185 210 240 223 228 243 186 188 204 191 155 172 41 306 284 163 168 200 231 217 219 172 166 149 202 168 174
344 339 333 330 326 308 287 239 247 305 267 223 242 232 254 149 161 203 187 189 222 219 227 272 239 235 196 152 163 178 188 236 264 168 88 18 333 319 310 246 196 168 148 201 124
344 339 331 326 319 286 233 240 264 293 289 282 229 232 238 157 216 207 170 215 219 228 242 226 254 220 180 167 167 193 216 227 127 115 105 145 307 281 232 303 284 188 156 166 181
343 337 330 326 313 300 237 260 247 263 294 268 173 230 199 152 225 212 176 209 237 227 228 247 263 272 259 182 182 196 226 216 146 150 185 215 216 270 198 245 230 178 165 154 175
340 336 324 324 295 281 273 330 249 243 293 125 163 184 157 171 219 189 172 220 255 267 239 259 276 262 257 277 263 255 199 200 169 168 131 213 131 254 160 216 184 218 180 185 181
338 338 323 334 260 270 307 339 78 300 242 176 144 153 154 208 248 163 171 182 250 271 290 277 278 283 249 253 252 282 325 287 251 129 153 180 162 199 190 190 218 192 199 189 183
338 331 304 237 220 336 285 302 183 236 319 151 164 169 193 197 247 163 175 189 196 271 252 266 273 265 275 300 263 206 266 300 55 340 284 200 79 255 199 195 213 211 206 198 190
337 325 279 242 235 301 295 353 243 254 246 230 175 176 185 202 218 184 163 200 213 230 275 262 273 214 212 207 224 250 201 194 254 192 202 350 172 224 186 198 216 208 204 207 170
341 345 244 235 206 232 293 229 225 237 273 356 345 180 193 207 213 186 182 195 214 204 205 258 285 295 202 183 183 258 274 232 282 262 151 72 4 125 174 201 213 197 190 212 160
338 306 254 215 168 213 217 249 270 302 311 317 310 323 316 212 213 219 194 208 220 213 206 248 283 288 181 170 214 183 240 355 350 285 71 24 327 183 171 200 202 211 206 150 160
319 268 133 148 161 188 226 249 272 270 270 280 293 314 304 309 299 259 229 235 217 229 201 217 180 284 306 184 195 273 268 282 211 149 156 136 293 288 182 178 152 134 107 97 123
330 298 144 173 162 213 227 235 255 274 284 303 157 261 292 297 307 311 320 279 246 257 184 213 161 243 223 244 243 205 222 190 146 277 166 120 240 242 188 184 120 106 96 90 83
315 272 212 170 248 256 276 296 284 272 278 315 313 290 250 273 296 302 307 313 330 10 310 258 233 255 323 336 307 21 302 330 293 165 191 134 216 139 112 88 108 120 124 130 124
294 314 354 323 303 358 338 328 339 331 330 271 281 304 310 304 278 276 288 297 307 13 12 100 213 174 215 236 134 31 307 315 104 317 14 293 87 39 83 105 131 144 145 146 143
286 354 25 327 334 317 304 312 311 310 313 316 286 249 287 300 313 313 306 299 296 260 198 108 217 279 285 194 126 74 211 283 343 290 157 221 162 188 160 162 203 155 145 153 150
20 352 347 299 300 321 311 292 271 284 281 299 313 332 273 265 255 307 306 24 332 346 352 322 243 250 288 299 199 133 261 276 286 299 333 202 193 168 164 174 218 156 145 156 160
351 343 303 291 301 304 315 333 333 346 340 335 338 337 327 4 348 333 319 314 315 340 323 355 52 22 270 303 130 106 208 211 317 314 291 278 180 166 175 183 209 155 154 153 147
Height
791 788 786 784 782 780 779 778 777 776 776 775 773 772 770 769 768 767 764 757 757 758 760 760 761 759 760 766 767 771 786 805 809 811 781 749 758 750 750 762 766 767 783 792 800
791 788 785 783 781 780 778 777 775 775 774 773 772 771 770 769 767 762 752 755 756 757 759 759 758 757 769 770 771 783 792 789 784 785 779 763 759 756 760 764 776 782 788 794 798
791 787 785 783 781 778 777 775 774 773 772 771 771 770 771 770 769 750 745 750 754 756 758 759 758 757 770 770 785 786 790 781 780 770 774 775 763 749 768 783 778 785 789 793 796
791 788 785 782 780 777 776 774 772 771 770 769 770 770 770 771 775 744 744 749 753 756 758 756 752 766 775 779 779 794 784 775 771 773 775 775 767 763 764 772 773 778 786 792 795
792 788 785 782 779 776 774 773 771 769 769 768 769 770 771 772 759 746 746 749 752 756 757 755 757 762 782 792 792 781 788 779 783 781 782 781 772 779 766 766 772 777 788 790 796
792 788 784 781 778 775 773 771 770 769 768 768 769 770 771 774 742 744 745 749 751 755 756 752 750 757 781 799 799 773 781 785 783 787 786 787 787 782 766 764 770 776 782 788 793
792 788 784 780 777 774 772 770 768 768 767 768 769 770 769 757 744 743 745 747 750 753 752 749 749 753 770 801 793 788 786 787 785 784 788 787 802 797 779 763 771 776 784 787 792
792 787 783 779 775 772 770 768 767 766 766 767 768 770 764 742 742 743 743 746 748 750 749 748 750 763 781 786 786 800 793 803 788 787 793 796 826 793 772 775 779 777 783 788 794
791 786 782 778 774 771 768 767 765 764 766 767 769 769 760 739 739 739 740 743 745 747 746 745 746 775 784 796 807 803 816 807 795 782 787 795 813 790 780 783 786 786 785 788 794
789 784 780 776 772 768 766 765 764 765 766 767 768 773 748 738 732 735 738 740 742 742 746 746 753 782 787 791 818 800 810 797 795 787 787 795 796 781 783 786 783 783 788 788 789
787 782 777 773 769 766 765 765 768 768 763 754 747 743 730 726 729 732 735 739 739 744 765 749 773 791 782 770 778 784 799 806 788 778 790 796 792 787 776 775 785 785 790 791 791
784 779 774 769 766 763 763 762 748 744 752 738 735 733 725 724 735 731 733 746 749 767 753 761 774 748 750 760 772 786 799 792 791 773 792 808 804 792 784 780 776 782 785 788 791
781 775 769 764 760 758 756 750 745 742 752 729 723 727 722 722 733 734 732 738 749 760 757 768 750 729 749 761 779 784 789 778 781 793 797 806 812 803 786 781 779 779 779 782 789
777 772 765 760 759 755 750 741 742 741 770 738 727 722 716 719 736 719 725 736 743 757 750 752 730 733 737 756 762 780 753 754 776 789 823 792 829 806 793 790 780 778 780 778 781
772 766 762 760 755 752 740 739 740 743 810 719 719 703 709 728 721 723 719 731 751 748 743 758 743 740 746 742 729 745 727 739 751 776 799 805 813 799 790 793 780 773 771 772 773
765 761 757 756 753 744 741 738 740 780 792 728 712 721 729 725 724 716 725 723 727 743 740 743 720 730 728 722 722 718 731 736 743 774 806 792 796 799 793 779 773 763 757 760 767
758 756 752 754 748 743 743 742 779 792 718 729 729 721 727 735 730 729 737 748 763 773 774 749 740 723 716 736 723 725 751 799 809 817 822 781 805 784 764 761 751 750 757 755 760
753 747 746 745 745 745 744 761 791 744 732 703 715 718 735 726 729 726 739 754 741 750 763 776 776 731 714 731 742 740 748 786 799 802 797 780 793 776 750 747 746 748 748 750 755
750 746 745 741 742 745 754 784 767 742 717 718 716 732 734 723 725 727 736 742 732 733 768 765 757 713 710 709 721 740 761 737 764 761 781 779 760 748 750 751 749 749 747 746 752
752 748 739 739 741 745 763 774 749 725 720 719 740 725 741 729 731 730 735 718 721 711 713 734 763 717 701 705 710 728 721 769 772 792 816 809 808 782 763 756 748 752 747 747 749
754 749 735 738 741 750 773 759 739 718 713 724 730 735 732 732 723 725 724 708 701 704 703 716 740 737 713 724 736 736 746 742 754 767 801 816 803 747 749 742 740 741 742 744 749
761 757 733 735 755 751 758 742 729 721 707 713 711 723 733 726 730 726 724 707 685 688 713 706 727 757 738 706 701 713 733 743 781 780 766 794 801 742 737 730 734 742 744 747 748
773 753 732 732 763 754 737 730 721 719 713 716 721 716 716 729 742 724 715 693 688 692 707 705 733 763 756 729 710 726 723 725 736 744 765 789 787 731 729 735 737 746 747 750 752
775 763 741 737 735 752 748 739 736 714 714 708 718 716 724 727 718 727 718 698 689 692 695 698 724 743 764 746 730 735 728 737 755 776 769 786 764 750 742 742 743 745 745 750 753
773 770 770 767 759 758 750 746 744 741 721 714 719 719 727 740 732 730 714 708 695 695 692 704 736 726 724 721 721 737 736 734 748 752 768 767 752 757 745 736 738 739 743 748 752
787 791 782 780 762 758 749 746 740 731 729 729 728 717 716 731 727 736 721 718 716 707 713 703 736 719 734 719 721 737 740 730 727 732 740 743 742 731 732 732 739 736 740 748 750
799 796 790 779 768 762 753 751 742 733 728 725 727 729 727 722 717 713 711 709 709 718 722 723 732 745 753 727 729 755 745 739 734 727 733 746 725 728 737 736 734 732 735 742 745